ARIANE 2 DEB, 27602

Orbit data source: Space-Track

ARIANE 2 DEB, 27602 is space debris in HEO originally from a launch on Fri, 27 Jan 1989 UTC launched from the French Guiana (FRGUI). Debris objects in space refer to the collection of defunct objects orbiting the Earth. Examples of debris include non-operational satellites, rocket bodies, and fragments generated from explosions, collisions, or faulty payload assembly.

Loading next visibility...
Identifier
27602, 1989-006AC
Orbit
HEO
Country
Flag of FRFR
Related business
Manufacturer
EADS/LV
Mission
Spacecraft
Bus & Motor
Unknown
Mass
Unknown
Launch date (UTC)
1989-01-27 (37 years ago)
Launch vehicle
Unknown
Launch site
French Guiana (FRGUI)
Object type
Payload
Rocket body
Debris
Shape & HBR
Unknown shape, 1.1 m
Radar Cross Section
Medium (>0.1 m² and <1 m²)

Expand to show TLE details & history
Last TLE update: 1 day ago

TLE from 1 day ago
0 ARIANE 2 DEB
1 27602U 89006AC  25347.91575876 -.00000261  00000-0 -10098-1 0  9999
2 27602   7.4732  51.0021 7074974 148.2989 268.7840  2.25432367 95485
Epoch: 2025-12-13T21:58Z
TLE epoch observation values (Epoch: 2025-12-13T21:58:41.556Z)
Latitude
-0.9134°
Longitude
-8.59101°
Altitude
28,073.064 km
Speed
2.63 km/s
True Right ascension
02h 55m 40s
True Declination
0° 54' 44"
Sunlit
Object was in daylight at epoch
Visualization orbit readout
Latitude
Unknown
Longitude
Unknown
Altitude
Unknown
Speed
Unknown
Apparent Right ascension
Unknown
Apparent Declination
Unknown
Sunlit
N/A
Visualization observer readout
Local Sidereal Time
02:41:48
Azimuth
Unknown
Elevation
Unknown
Doppler factor
Unknown
Orbital elements
Apogee altitude
35,582.185 km
Perigee altitude
809.87 km
Semi-major axis
24,574.164 km
Eccentricity
0.7075
Inclination
7.4732°
RAAN
51.0021°
Arg. of periapsis
148.2989°
True anomaly
204.52529°
Mean anomaly
268.784°
Eccentric anomaly
235.41201°
Mean motion
0.56341 °/min
Orbital period
638.97 mins
BSTAR
-0.010098
Loading maneuver chart data...
Computing Atmospheric mass density...
Loading historical data...
Loading historical data...
Loading historical data...
Loading historical data...
Loading historical data...
Loading historical data...
Loading historical data...

Documentation

Showing up to 5 results
|